Temp
81 86 90 88 73 71 61 63 69 68 69 73 74 72 72 72 68 64 75 78 81 81 82 80 75 76 75 75 75 76 76 77 77 76 76 76 76 77 77 77 76 76 77 77 76 76 76 75 74
87 85 88 81 68 62 63 67 66 71 72 74 73 72 72 69 72 67 73 77 81 82 82 81 73 75 75 75 75 75 76 76 76 76 76 76 76 76 77 76 76 76 76 76 76 75 74 74 74
84 85 83 73 66 62 62 67 71 69 71 72 71 73 72 69 72 74 77 79 81 81 81 79 73 74 75 75 75 75 75 76 76 76 76 76 76 76 76 76 76 76 76 76 76 76 75 74 74
86 86 78 68 62 65 66 70 72 70 71 72 73 70 73 74 74 77 79 80 81 80 80 74 73 74 74 74 75 75 75 76 76 76 76 75 75 75 75 75 75 75 75 75 75 74 74 73 73
85 80 67 63 63 66 69 71 74 72 72 73 73 69 70 73 77 78 79 80 80 80 80 78 72 73 74 74 75 75 75 75 75 75 75 75 75 75 75 75 75 75 75 75 74 74 73 73 72
75 76 65 61 63 66 68 72 73 73 72 71 72 72 71 75 76 77 80 81 82 80 79 79 70 71 72 73 74 74 74 74 74 74 74 74 74 74 74 75 74 74 74 74 73 73 73 72 71
70 68 64 64 64 65 68 72 73 73 72 72 76 70 72 74 77 78 80 81 81 81 79 78 79 74 68 70 71 72 73 73 73 73 73 72 72 72 73 73 74 74 73 72 71 71 71 71 70
75 72 62 64 65 64 70 71 73 74 72 73 74 72 70 76 76 78 79 79 80 79 79 77 79 79 78 77 67 68 70 70 70 70 68 67 68 69 69 69 72 74 73 71 70 70 70 70 69
72 68 63 63 65 68 69 70 70 73 72 71 73 74 74 76 76 75 75 76 77 77 78 77 77 79 79 79 73 66 66 66 66 67 64 66 76 75 73 67 70 72 71 70 70 69 68 67 66
72 66 66 71 72 71 70 72 72 71 71 71 72 72 72 74 74 73 73 73 74 74 75 74 75 78 78 78 77 78 76 77 77 76 75 76 75 75 74 68 66 68 68 69 68 66 63 65 74
67 68 68 68 70 73 71 70 73 72 68 74 74 74 71 72 74 74 75 76 75 76 76 72 73 75 78 78 77 77 77 77 76 75 74 75 74 73 75 74 74 74 67 72 70 68 72 71 73
67 66 68 66 67 68 70 72 70 71 73 72 75 77 73 71 73 75 75 76 76 76 77 75 73 73 75 77 77 77 76 75 75 74 73 73 73 72 73 74 74 72 74 72 71 71 70 70 71
67 66 66 66 66 68 68 67 70 70 73 71 70 70 72 73 74 76 77 77 76 75 77 77 74 73 73 73 75 74 75 75 75 74 73 74 73 72 73 73 73 73 73 72 70 70 70 69 69
66 66 65 66 65 64 66 65 66 68 69 70 69 71 74 73 74 74 74 75 75 76 77 78 74 72 73 72 74 74 72 74 74 74 74 72 73 73 72 72 72 72 72 72 71 70 69 69 69
65 63 64 64 64 63 65 62 65 69 67 69 71 72 71 72 73 73 75 75 75 76 77 75 73 72 71 71 72 72 73 72 72 74 73 72 72 72 72 72 71 71 71 68 67 69 69 69 69
62 64 58 61 62 61 64 62 66 66 68 70 69 71 70 71 72 75 76 76 77 77 75 76 72 71 71 71 72 72 73 73 72 71 72 72 71 72 71 71 70 66 64 65 67 66 62 63 63
58 57 56 56 60 60 62 62 63 66 66 69 71 71 70 72 72 73 74 74 76 76 76 74 73 70 70 70 71 71 71 73 72 70 67 67 70 71 71 71 66 63 62 60 61 60 61 61 60
53 54 52 57 58 58 58 63 65 66 65 69 70 70 70 70 72 72 73 73 75 75 76 76 75 72 69 69 69 68 69 71 71 70 68 68 66 67 69 71 67 63 62 61 59 59 57 58 62
59 58 56 54 56 57 57 60 64 66 65 68 68 68 68 68 68 68 67 69 70 72 73 73 74 74 71 66 65 65 64 66 67 68 68 69 67 66 64 65 69 65 60 61 60 59 56 54 59
58 56 52 53 54 55 54 58 64 61 61 60 62 64 63 64 65 64 65 65 65 69 69 71 72 73 73 70 68 68 67 67 68 68 67 67 66 65 63 63 63 63 62 64 63 59 58 59 61
53 56 51 54 52 53 53 58 58 58 59 59 59 59 60 61 63 64 63 63 64 63 64 67 69 71 73 73 70 66 64 64 65 65 65 66 67 66 63 63 63 61 60 59 58 57 56 54 55
50 55 54 51 54 50 51 52 54 55 55 57 58 59 60 61 62 62 62 62 61 61 63 64 65 67 70 72 70 66 64 63 67 68 67 67 66 65 64 63 63 62 61 59 59 58 57 55 51
52 54 54 51 50 51 50 52 55 54 53 54 56 56 58 59 61 60 60 60 60 61 61 64 64 65 65 68 70 69 67 70 70 71 70 70 69 66 65 63 63 61 61 61 61 59 56 56 54
52 52 51 50 50 43 49 49 54 54 54 53 55 56 58 58 59 60 59 61 60 61 61 62 62 62 64 66 66 67 66 65 64 65 66 67 67 66 65 64 62 62 61 60 60 59 57 56 55
52 54 42 41 40 41 41 42 54 54 56 58 56 57 57 59 59 59 58 58 58 58 59 59 61 59 62 62 62 62 61 60 60 60 59 59 60 61 62 61 59 60 60 60 60 59 57 56 55
51 54 44 34 34 39 37 40 51 53 55 58 58 56 56 57 57 56 57 57 56 56 57 58 58 57 59 60 59 60 61 62 63 61 61 62 62 63 63 62 61 60 60 60 59 58 57 56 54
49 46 50 38 26 38 46 48 52 51 52 54 55 56 55 55 55 55 55 56 56 55 55 56 57 56 57 57 58 58 58 58 58 58 59 59 59 58 58 59 60 61 61 60 59 57 56 55 54
51 53 45 45 32 33 41 43 51 45 49 53 52 54 53 53 54 54 55 54 54 55 55 56 56 54 55 56 56 55 55 56 57 57 55 56 57 57 56 57 57 57 58 58 59 57 57 56 55
46 47 45 49 44 37 36 45 56 52 54 53 55 54 53 53 53 53 53 53 54 54 55 55 55 53 53 54 54 54 53 54 54 54 53 53 54 54 54 54 54 54 55 56 55 56 56 55 54
47 49 50 44 35 38 38 47 49 58 58 56 53 52 53 53 52 52 52 53 53 52 52 52 52 50 50 51 52 51 52 52 52 51 51 50 50 50 50 50 51 51 52 52 52 51 52 52 51
MSLP
1014.41 1014.27 1013.93 1013.23 1013.22 1013.28 1013.72 1014.52 1015.18 1015.28 1015.58 1016.12 1016.35 1016.33 1016.22 1016.77 1017.39 1018.35 1019.38 1019.54 1019.38 1019.83 1020.22 1020.85 1021.27 1021.48 1021.61 1021.65 1021.67 1021.74 1021.72 1021.76 1021.91 1022.18 1022.29 1022.36 1022.33 1022.39 1022.48 1022.42 1022.46 1022.47 1022.51 1022.55 1022.68 1022.67 1022.71 1022.68 1022.71
1014.20 1014.18 1013.58 1013.34 1013.23 1013.08 1013.71 1014.62 1015.03 1015.41 1015.90 1016.44 1016.72 1016.75 1016.65 1017.15 1018.12 1019.18 1019.47 1019.89 1019.74 1020.07 1020.41 1020.80 1021.47 1021.65 1021.75 1021.82 1021.83 1021.87 1021.86 1021.97 1022.26 1022.39 1022.43 1022.59 1022.64 1022.69 1022.77 1022.78 1022.75 1022.82 1022.87 1023.03 1023.10 1023.21 1023.22 1023.14 1023.16
1014.38 1014.17 1013.31 1013.68 1013.73 1013.36 1013.90 1014.79 1015.03 1016.03 1016.43 1016.47 1016.54 1017.06 1017.19 1017.58 1018.47 1018.90 1019.40 1019.71 1019.98 1020.39 1020.64 1021.12 1021.66 1021.83 1021.99 1022.07 1022.06 1022.11 1022.13 1022.18 1022.50 1022.67 1022.66 1022.81 1022.94 1023.03 1023.01 1023.07 1023.06 1023.08 1023.20 1023.36 1023.50 1023.59 1023.51 1023.57 1023.70
1014.17 1014.07 1014.63 1014.06 1013.89 1014.31 1014.47 1014.94 1015.36 1015.99 1016.53 1016.70 1016.57 1016.78 1017.91 1018.60 1018.54 1019.03 1019.51 1019.78 1020.15 1020.63 1020.98 1021.75 1021.91 1022.14 1022.38 1022.45 1022.43 1022.45 1022.50 1022.43 1022.79 1022.88 1022.92 1023.15 1023.34 1023.44 1023.46 1023.45 1023.51 1023.47 1023.50 1023.71 1023.85 1023.96 1023.97 1023.95 1024.10
1014.44 1014.08 1014.13 1014.16 1014.33 1014.69 1015.16 1015.31 1015.55 1015.69 1016.05 1016.30 1016.66 1016.87 1017.57 1018.67 1019.05 1019.40 1019.73 1019.93 1020.19 1020.69 1021.16 1021.78 1022.22 1022.40 1022.59 1022.77 1022.82 1022.87 1022.87 1022.87 1023.07 1023.17 1023.24 1023.55 1023.72 1023.80 1023.81 1023.86 1023.91 1023.84 1023.87 1024.06 1024.26 1024.33 1024.31 1024.40 1024.55
1014.47 1014.33 1013.94 1013.81 1014.28 1014.92 1015.44 1015.66 1015.68 1015.79 1016.17 1016.58 1016.60 1016.80 1017.62 1018.66 1018.97 1019.43 1019.85 1020.15 1020.40 1020.83 1021.36 1021.85 1022.40 1022.53 1022.73 1022.89 1022.99 1023.02 1023.08 1023.17 1023.27 1023.44 1023.65 1023.88 1024.05 1024.11 1024.22 1024.25 1024.20 1024.21 1024.30 1024.43 1024.66 1024.75 1024.84 1024.89 1025.03
1014.27 1014.32 1013.95 1014.04 1014.14 1014.69 1015.31 1015.98 1015.63 1015.80 1016.09 1016.38 1016.62 1016.58 1017.80 1018.46 1018.97 1019.55 1019.95 1020.25 1020.71 1021.18 1021.59 1022.00 1022.34 1022.76 1023.05 1023.21 1023.31 1023.35 1023.31 1023.43 1023.49 1023.71 1023.99 1024.22 1024.40 1024.49 1024.52 1024.55 1024.60 1024.57 1024.66 1024.84 1025.13 1025.29 1025.40 1025.45 1025.54
1014.38 1014.47 1014.28 1014.14 1013.92 1014.63 1015.46 1015.82 1016.06 1015.97 1016.19 1017.08 1017.17 1016.57 1017.25 1018.06 1019.12 1019.63 1020.19 1020.68 1021.02 1021.43 1021.71 1022.09 1022.32 1022.65 1022.86 1023.25 1023.61 1023.65 1023.60 1023.69 1023.81 1024.04 1024.38 1024.61 1024.76 1024.94 1025.03 1025.04 1025.02 1024.90 1025.02 1025.22 1025.47 1025.74 1025.80 1025.88 1025.98
1014.89 1014.44 1013.99 1014.03 1014.04 1014.59 1015.66 1015.59 1016.37 1016.73 1016.47 1017.02 1017.24 1017.36 1017.80 1018.35 1019.20 1019.67 1020.26 1020.87 1021.31 1021.65 1021.82 1022.15 1022.41 1022.60 1022.84 1023.08 1023.62 1023.91 1024.02 1024.13 1024.25 1024.53 1024.74 1024.87 1024.68 1024.95 1025.15 1025.32 1025.32 1025.27 1025.27 1025.55 1025.80 1026.11 1026.25 1026.36 1026.43
1014.60 1014.36 1014.07 1014.16 1014.22 1014.42 1015.27 1015.56 1015.96 1016.40 1016.42 1016.87 1017.34 1018.00 1018.65 1018.83 1018.96 1019.13 1019.53 1020.14 1020.85 1021.40 1021.92 1022.37 1022.52 1022.51 1022.82 1023.20 1023.55 1023.62 1023.93 1023.99 1024.10 1024.35 1024.58 1024.64 1024.83 1025.01 1025.10 1025.49 1025.63 1025.58 1025.61 1025.86 1026.10 1026.47 1026.74 1026.51 1026.19
1014.86 1014.35 1014.67 1014.86 1014.92 1014.95 1015.24 1015.83 1016.18 1016.19 1016.23 1016.23 1016.60 1017.40 1018.38 1018.79 1018.84 1018.90 1019.05 1019.33 1019.96 1020.83 1021.59 1022.20 1022.45 1022.63 1022.70 1023.00 1023.35 1023.58 1023.80 1023.98 1024.21 1024.40 1024.61 1024.75 1024.95 1025.24 1025.22 1025.40 1025.59 1025.63 1025.91 1026.03 1026.36 1026.66 1026.31 1026.25 1026.09
1014.79 1015.09 1015.26 1015.50 1015.72 1015.62 1015.56 1015.86 1016.22 1016.31 1016.26 1016.75 1016.88 1017.13 1018.03 1018.41 1018.53 1018.44 1018.90 1019.16 1019.78 1020.40 1020.90 1021.66 1022.15 1022.51 1022.62 1022.79 1023.06 1023.23 1023.58 1023.99 1024.20 1024.43 1024.65 1024.82 1024.93 1025.08 1025.11 1025.16 1025.37 1025.65 1025.75 1025.90 1026.15 1026.23 1026.33 1026.34 1026.29
1014.95 1015.44 1015.83 1016.24 1016.23 1016.16 1016.17 1016.19 1016.16 1016.25 1016.62 1017.15 1017.28 1017.72 1017.76 1017.99 1018.50 1018.54 1018.76 1019.32 1019.75 1020.12 1020.53 1021.16 1021.79 1022.09 1022.39 1022.67 1022.90 1023.22 1023.31 1023.69 1023.89 1024.24 1024.53 1024.63 1024.75 1024.98 1025.10 1025.24 1025.40 1025.54 1025.79 1025.96 1026.18 1026.24 1026.33 1026.39 1026.40
1015.45 1015.75 1016.07 1016.57 1016.69 1016.71 1016.48 1016.67 1016.73 1016.53 1016.83 1017.09 1017.37 1017.31 1017.44 1017.71 1018.09 1018.66 1018.83 1019.09 1019.46 1019.77 1020.17 1020.74 1021.46 1021.94 1022.13 1022.36 1022.52 1022.72 1023.22 1023.41 1023.67 1023.89 1024.14 1024.54 1024.57 1024.73 1024.91 1025.16 1025.38 1025.57 1025.76 1025.94 1026.07 1026.16 1026.25 1026.26 1026.38
1016.03 1016.01 1016.34 1016.75 1016.99 1017.08 1016.79 1016.72 1016.38 1016.75 1016.92 1016.89 1017.06 1017.22 1017.44 1017.71 1018.10 1018.25 1018.57 1018.84 1019.19 1019.50 1019.97 1020.47 1020.96 1021.47 1021.83 1022.06 1022.32 1022.64 1022.83 1023.18 1023.34 1023.47 1023.86 1024.15 1024.40 1024.53 1024.77 1024.93 1025.12 1025.33 1025.63 1026.01 1026.22 1026.21 1026.29 1026.19 1026.21
1016.02 1016.14 1016.55 1017.05 1017.29 1017.31 1017.11 1016.10 1016.32 1016.80 1016.74 1016.64 1016.92 1017.03 1017.31 1017.66 1017.84 1018.00 1018.33 1018.62 1018.94 1019.32 1019.61 1020.15 1020.79 1021.15 1021.47 1021.82 1022.16 1022.35 1022.54 1022.90 1023.20 1023.53 1023.68 1024.00 1024.24 1024.38 1024.60 1024.64 1024.77 1025.34 1025.79 1025.82 1025.74 1025.91 1026.37 1026.38 1026.43
1016.14 1015.79 1016.55 1017.36 1017.66 1017.35 1017.18 1016.24 1016.51 1017.00 1016.79 1016.61 1016.74 1016.96 1017.23 1017.37 1017.75 1018.07 1018.27 1018.47 1018.53 1018.95 1019.41 1019.83 1020.39 1020.90 1021.21 1021.48 1021.75 1022.09 1022.27 1022.41 1022.71 1023.15 1023.58 1023.79 1023.96 1024.21 1024.29 1024.31 1024.78 1025.16 1025.43 1025.69 1025.71 1025.98 1025.94 1026.04 1026.10
1015.33 1015.81 1016.77 1017.00 1017.63 1017.56 1017.29 1016.46 1016.25 1016.75 1017.05 1016.62 1016.59 1016.87 1017.17 1017.45 1017.48 1017.77 1018.00 1018.19 1018.38 1018.60 1018.78 1019.21 1019.73 1020.29 1020.74 1021.20 1021.56 1021.84 1021.99 1022.10 1022.31 1022.56 1022.91 1023.22 1023.57 1023.79 1024.00 1023.96 1024.41 1024.86 1025.00 1025.23 1025.47 1025.64 1025.85 1025.71 1025.59
1015.26 1015.77 1016.45 1017.51 1017.85 1017.82 1017.36 1016.62 1016.40 1016.65 1016.95 1016.91 1016.91 1017.01 1017.13 1017.42 1018.10 1018.27 1018.32 1018.31 1018.45 1018.56 1018.62 1018.77 1019.12 1019.74 1020.43 1020.97 1021.34 1021.57 1021.55 1021.81 1021.97 1022.12 1022.32 1022.51 1022.88 1023.30 1023.64 1023.77 1023.68 1024.39 1024.57 1024.51 1024.88 1025.26 1025.42 1025.56 1025.60
1015.50 1016.11 1017.11 1018.14 1018.18 1017.98 1017.83 1016.80 1016.72 1017.13 1017.34 1017.89 1017.82 1017.66 1017.80 1017.85 1018.16 1018.50 1018.57 1018.53 1018.49 1018.56 1018.75 1018.91 1019.20 1019.56 1019.93 1020.42 1020.73 1020.98 1021.28 1021.37 1021.51 1021.69 1021.86 1022.07 1022.34 1022.67 1023.07 1023.31 1023.40 1023.54 1023.72 1023.88 1024.20 1024.63 1024.78 1024.93 1025.11
1016.33 1016.24 1017.13 1017.55 1018.24 1018.35 1018.08 1016.93 1016.99 1017.70 1017.94 1018.34 1018.69 1018.73 1018.73 1018.70 1018.63 1018.77 1018.84 1018.83 1018.80 1018.86 1018.95 1018.92 1019.09 1019.36 1019.66 1020.04 1020.47 1020.85 1021.26 1021.35 1021.20 1021.26 1021.44 1021.55 1021.82 1022.09 1022.35 1022.53 1022.72 1022.91 1023.19 1023.30 1023.37 1023.66 1023.93 1023.95 1024.24
1016.81 1016.93 1017.33 1017.63 1017.79 1018.10 1018.41 1016.92 1017.06 1017.71 1018.25 1018.69 1018.96 1019.17 1019.16 1019.13 1019.48 1019.55 1019.48 1019.43 1019.39 1019.26 1019.23 1019.20 1019.40 1019.58 1019.72 1019.89 1020.21 1020.62 1020.82 1020.96 1020.83 1020.79 1020.83 1020.87 1021.18 1021.38 1021.61 1021.82 1021.96 1022.10 1022.27 1022.38 1022.36 1022.53 1022.81 1023.35 1023.67
1017.36 1017.56 1017.73 1018.09 1018.16 1018.27 1018.33 1017.95 1017.14 1017.81 1018.28 1018.99 1019.45 1019.71 1019.83 1020.05 1020.02 1020.33 1020.35 1020.31 1020.24 1019.91 1019.55 1019.40 1019.65 1019.89 1020.03 1020.02 1020.13 1020.40 1020.55 1020.44 1020.58 1020.47 1020.42 1020.40 1020.36 1020.71 1020.81 1021.02 1021.20 1021.27 1021.36 1021.32 1021.40 1021.64 1021.98 1022.13 1022.44
1017.87 1017.91 1018.39 1018.63 1018.64 1018.93 1018.53 1018.39 1016.80 1017.45 1017.87 1019.13 1019.82 1020.11 1020.32 1020.60 1020.75 1020.74 1020.88 1020.89 1020.92 1020.79 1020.39 1020.17 1020.03 1020.29 1020.54 1020.63 1020.74 1020.59 1020.62 1020.81 1020.94 1020.88 1020.74 1020.54 1020.39 1020.27 1020.42 1020.55 1020.56 1020.51 1020.51 1020.51 1020.60 1020.69 1021.04 1021.21 1021.22
1017.61 1017.34 1018.40 1018.96 1019.09 1018.92 1019.54 1019.11 1017.12 1017.94 1018.23 1018.82 1019.57 1020.31 1020.94 1021.16 1021.24 1021.18 1021.11 1021.13 1021.43 1021.46 1021.33 1021.05 1020.86 1020.94 1020.93 1021.35 1021.40 1021.29 1021.38 1021.47 1021.37 1021.40 1021.32 1021.17 1020.98 1020.69 1020.62 1020.64 1020.64 1020.38 1020.22 1019.98 1019.87 1019.94 1019.95 1020.23 1020.37
1017.12 1016.89 1017.09 1017.80 1019.10 1019.39 1020.21 1018.70 1017.67 1018.58 1018.87 1019.42 1020.05 1020.64 1021.20 1021.72 1021.99 1021.98 1022.00 1021.95 1022.03 1022.25 1022.17 1021.92 1021.68 1021.80 1021.87 1021.70 1021.86 1021.85 1021.88 1021.73 1021.70 1021.73 1021.61 1021.35 1021.13 1020.92 1020.57 1020.54 1020.42 1020.30 1020.09 1019.96 1019.80 1019.68 1019.51 1019.50 1019.61
1017.44 1017.41 1017.36 1018.18 1020.25 1019.43 1018.49 1018.06 1018.23 1018.80 1019.26 1019.69 1020.26 1020.74 1021.31 1021.89 1022.17 1022.38 1022.67 1022.84 1022.76 1022.85 1023.07 1022.94 1022.74 1022.75 1022.88 1022.80 1022.60 1022.56 1022.59 1022.47 1022.33 1022.18 1022.14 1021.88 1021.68 1021.51 1021.27 1020.81 1020.53 1020.22 1019.90 1019.78 1019.69 1019.56 1019.32 1019.23 1019.01
1016.79 1016.81 1017.35 1017.62 1018.55 1018.50 1017.92 1017.55 1016.41 1017.92 1018.61 1019.36 1020.01 1020.65 1021.61 1022.32 1022.50 1022.73 1023.13 1023.45 1023.52 1023.35 1023.44 1023.40 1023.57 1023.45 1023.51 1023.48 1023.39 1023.30 1023.36 1023.19 1023.00 1022.81 1022.70 1022.44 1022.15 1021.74 1021.35 1020.91 1020.59 1020.29 1020.04 1019.78 1019.58 1019.41 1019.15 1018.89 1018.71
1016.94 1016.75 1016.85 1016.92 1017.22 1017.22 1017.12 1015.83 1015.23 1015.88 1017.10 1018.39 1019.62 1020.72 1021.67 1022.43 1022.79 1023.15 1023.43 1023.86 1023.91 1023.85 1023.87 1023.71 1023.71 1023.93 1023.93 1023.99 1023.84 1023.83 1023.86 1023.63 1023.47 1023.33 1023.21 1022.97 1022.51 1022.16 1021.72 1021.23 1020.85 1020.48 1020.08 1019.71 1019.45 1019.14 1018.83 1018.47 1018.11
1016.40 1016.00 1016.11 1016.22 1016.99 1017.17 1017.06 1015.77 1015.72 1015.83 1017.04 1018.34 1019.61 1020.86 1021.74 1022.51 1022.90 1023.38 1023.63 1023.81 1023.82 1024.15 1024.15 1024.06 1024.27 1024.42 1024.54 1024.44 1024.22 1024.18 1024.06 1023.92 1023.71 1023.63 1023.54 1023.40 1023.11 1022.71 1022.25 1021.71 1021.20 1020.77 1020.40 1020.01 1019.64 1019.20 1018.83 1018.34 1017.89
Wind_Speed
1 3 2 2 3 1 4 5 1 5 5 3 3 1 3 4 5 5 5 5 13 13 13 12 9 12 12 11 10 8 8 15 16 17 16 16 15 15 15 14 13 14 17 17 16 17 17 17 15
4 2 1 1 3 4 5 4 6 4 5 6 5 3 2 5 4 5 10 8 15 13 11 10 9 11 12 11 10 9 9 15 16 16 16 15 14 14 14 13 12 16 17 15 15 15 14 13 14
2 4 1 1 1 3 3 5 6 6 6 3 4 2 2 4 5 12 3 15 14 11 9 10 10 12 12 11 10 10 10 16 16 15 15 15 14 13 12 12 11 13 15 15 14 13 13 17 17
1 2 4 4 2 3 2 6 5 10 3 1 3 5 4 4 6 3 12 17 14 11 9 11 10 11 11 10 11 10 11 16 14 14 15 14 12 11 11 12 11 11 15 14 13 12 15 15 15
2 1 2 2 2 3 1 4 8 10 5 4 2 5 4 4 4 8 15 15 15 12 10 11 9 10 10 10 10 10 11 14 13 13 14 12 12 10 10 12 11 6 13 13 10 12 15 15 13
2 0 5 5 4 3 2 6 8 5 4 5 4 5 4 6 9 10 15 15 12 12 11 11 9 10 9 9 8 9 10 12 13 12 12 12 11 10 9 10 8 7 15 13 12 11 13 13 13
3 2 3 4 6 5 5 8 7 6 5 4 2 3 5 8 9 13 15 13 11 11 10 9 9 9 6 6 6 7 9 9 10 11 11 10 8 8 7 8 6 9 12 14 11 11 12 12 12
3 1 6 3 8 5 8 7 1 5 4 3 0 4 5 10 13 14 14 12 11 10 9 9 8 9 9 8 6 6 7 9 11 11 10 8 9 8 7 7 5 6 11 13 12 10 10 10 11
2 4 6 7 8 7 8 6 3 1 5 2 3 2 4 16 16 15 14 12 10 9 9 9 9 8 8 7 7 6 6 8 10 9 9 8 6 7 8 6 5 5 10 12 11 8 8 9 9
3 3 6 4 5 7 11 5 8 5 4 4 5 4 6 14 17 18 18 16 14 13 10 9 9 9 8 6 9 7 7 6 6 7 9 5 6 5 5 5 5 6 8 9 10 9 4 5 5
3 3 5 4 3 7 11 7 5 5 4 5 7 11 12 14 16 17 18 18 18 15 11 11 10 9 9 8 6 4 4 4 5 7 7 5 5 6 5 5 5 5 5 4 5 5 4 4 4
5 3 2 3 4 6 10 10 6 6 2 3 2 6 14 16 16 18 17 17 17 16 15 14 12 10 11 7 7 6 5 5 5 6 7 5 4 5 5 4 5 4 4 5 4 4 4 5 4
3 5 4 4 3 5 7 4 2 6 4 3 3 6 12 15 15 14 14 14 14 16 15 15 14 13 11 11 8 7 7 6 6 7 7 6 5 5 5 4 4 4 4 4 5 4 4 4 5
4 6 7 2 3 3 3 3 2 2 2 5 4 6 9 12 15 12 13 14 15 15 15 14 14 13 13 11 12 9 8 8 7 7 8 9 6 5 5 5 5 5 5 5 5 5 5 5 5
8 6 4 3 1 2 1 3 6 3 1 1 6 5 5 10 11 15 14 14 15 13 13 14 15 14 13 13 11 9 8 8 8 7 9 10 9 8 7 6 6 6 6 6 5 6 5 5 5
4 3 6 2 1 1 4 5 1 2 4 5 3 5 6 7 12 12 11 12 13 14 15 14 11 12 13 11 9 8 9 8 8 7 7 10 10 10 9 7 7 6 5 6 7 6 5 5 6
1 7 7 3 1 1 4 3 3 1 2 5 2 1 2 5 8 10 12 13 14 14 14 15 15 15 15 12 8 8 10 9 8 7 7 9 11 11 10 8 6 8 6 6 5 6 6 7 7
10 6 3 5 5 2 4 9 4 2 4 5 4 3 4 6 5 3 7 11 14 14 15 15 14 16 14 8 7 6 6 8 7 8 8 11 9 10 11 9 9 7 7 7 7 8 5 5 8
9 7 6 2 3 3 6 8 8 3 5 7 5 5 4 5 4 4 3 5 9 12 15 16 15 14 10 7 7 6 7 7 7 7 11 12 10 11 10 7 10 9 8 9 8 8 8 6 7
9 8 5 3 2 2 2 9 6 4 3 4 8 4 4 4 5 7 6 4 1 6 9 12 12 12 12 9 6 6 5 6 7 7 9 10 10 10 10 10 9 11 9 13 12 11 8 8 10
2 8 6 4 4 3 2 6 3 4 5 4 5 3 4 5 6 8 9 9 7 5 2 7 9 11 11 12 7 3 1 1 4 6 7 9 11 11 11 12 10 10 9 9 11 12 13 10 6
6 4 7 11 6 3 2 2 3 2 5 6 5 6 6 8 8 9 10 11 10 9 6 4 4 6 7 10 9 11 8 7 8 7 6 7 11 11 12 13 12 12 9 11 11 10 12 11 8
4 7 7 4 5 1 3 5 4 5 4 4 6 8 10 9 11 11 11 11 11 10 11 11 10 7 3 6 8 6 9 8 7 7 10 10 10 11 11 12 12 12 10 12 13 11 12 10 10
13 10 8 4 3 4 4 5 5 7 6 7 7 9 10 10 10 10 9 10 12 11 12 12 14 12 9 6 1 4 6 6 5 7 7 6 6 4 7 9 10 11 11 12 11 12 13 12 12
3 14 4 4 5 4 2 4 3 5 6 13 14 11 8 8 9 10 12 12 12 13 13 11 14 14 12 11 10 7 4 3 3 4 4 5 5 5 6 6 5 5 5 7 9 11 11 12 12
13 6 6 8 6 4 2 7 2 2 4 9 9 9 9 8 8 10 11 11 12 12 13 13 14 14 13 13 12 10 9 5 5 5 5 4 5 6 7 7 8 8 8 8 7 6 7 9 10
7 7 4 8 2 2 5 3 4 5 7 11 11 11 10 9 9 10 10 10 11 12 12 12 13 13 13 12 10 11 9 9 7 8 6 5 6 6 8 8 9 10 11 12 11 7 9 7 9
5 11 4 1 6 5 5 5 6 14 17 16 14 13 10 9 10 10 10 9 9 10 10 11 12 12 11 11 10 9 9 9 8 8 9 9 8 9 8 8 8 9 10 10 11 10 12 11 9
6 6 2 2 2 5 5 6 3 22 23 21 16 13 12 10 10 9 9 8 9 9 9 10 11 11 11 10 9 9 9 9 8 8 9 9 9 10 10 9 10 10 10 10 10 12 13 14 14
2 5 10 6 7 2 1 3 2 15 20 18 16 13 11 10 10 9 8 7 8 8 9 9 9 9 9 8 9 10 10 10 10 10 10 10 10 9 10 10 10 10 10 11 12 13 12 14 14
Wind_Direction
33 358 263 242 219 222 135 141 355 149 154 68 101 256 31 47 336 11 134 130 141 144 140 143 118 119 115 110 109 109 112 120 115 106 101 96 99 98 96 93 96 91 91 85 88 90 92 92 90
40 268 193 73 245 192 123 133 186 112 90 122 114 133 156 75 74 106 143 165 152 146 146 141 130 125 119 113 101 95 109 119 115 110 107 100 103 103 98 90 99 100 90 91 91 94 88 92 91
111 346 313 14 246 121 113 178 146 117 112 171 135 22 17 66 87 149 97 156 150 148 148 130 131 127 125 119 110 103 97 111 112 112 106 102 105 108 95 89 79 104 102 99 101 106 91 93 87
77 143 106 255 152 90 73 162 149 144 166 208 119 109 121 17 138 141 147 154 153 151 152 132 131 131 135 125 123 118 111 114 112 108 102 104 109 111 101 95 77 80 100 101 112 103 97 91 89
51 148 178 175 146 100 161 146 171 162 136 146 171 119 97 109 120 136 154 159 156 152 149 150 138 137 133 135 134 130 119 116 113 108 106 110 115 116 100 95 99 83 102 108 105 107 102 98 94
135 341 206 188 132 117 156 162 168 172 153 140 170 144 103 123 147 147 157 162 158 154 156 147 146 139 141 140 139 134 122 119 114 111 112 118 120 118 116 100 96 96 102 105 99 89 100 102 104
141 196 166 160 127 139 144 164 177 172 157 163 111 145 106 155 136 149 160 160 163 155 162 157 155 143 124 125 127 121 114 108 113 113 114 115 112 112 101 94 105 105 110 104 89 87 85 96 102
112 189 156 199 158 123 146 165 153 200 144 97 353 175 152 149 144 147 155 166 167 164 168 166 159 165 158 150 129 113 112 110 105 107 107 99 96 94 82 99 105 125 107 106 97 94 95 104 108
105 211 183 165 168 133 148 170 132 47 141 181 168 351 73 139 146 146 158 168 176 176 178 178 174 170 166 159 142 131 113 97 108 117 108 143 136 148 162 63 125 132 109 104 105 97 103 102 99
208 222 182 166 146 144 157 182 148 183 150 186 180 120 138 155 161 161 170 177 184 186 188 189 185 180 176 167 165 167 152 162 163 162 162 156 152 149 145 123 115 91 90 97 99 95 105 221 148
168 201 154 164 140 152 148 159 151 173 195 206 214 171 166 177 179 179 182 182 186 188 184 192 189 193 189 180 178 180 178 172 174 172 169 161 159 163 171 149 161 150 163 126 132 162 187 167 176
171 77 100 134 156 145 156 127 167 211 71 69 196 170 171 185 192 190 192 190 190 190 190 189 192 192 200 196 196 189 188 184 183 186 178 176 180 180 174 177 170 173 178 162 181 181 174 179 185
133 138 92 97 133 101 129 125 127 216 197 210 79 178 189 191 204 202 197 196 195 199 197 193 195 198 197 202 194 203 203 195 193 189 188 194 192 190 185 185 186 188 185 189 191 187 189 199 202
105 128 119 121 110 83 159 141 224 142 61 208 200 187 196 203 201 203 203 202 203 202 203 199 199 204 204 204 206 202 202 204 198 199 195 201 202 198 196 192 199 201 201 197 200 196 205 211 213
132 112 120 68 57 87 281 210 220 98 264 107 191 199 208 213 203 213 208 211 206 206 207 205 206 200 204 206 204 207 212 206 210 207 204 202 205 203 205 202 205 208 198 195 208 208 222 235 218
120 126 174 102 236 37 255 224 161 29 202 177 192 208 214 219 228 223 224 220 214 215 211 209 209 205 205 206 207 208 209 211 215 215 216 212 212 213 209 213 213 195 192 203 212 208 217 232 234
202 184 203 176 188 125 244 267 81 331 65 154 153 236 252 237 228 232 233 230 221 218 218 216 210 213 210 208 207 210 217 219 213 206 202 208 216 218 221 222 213 191 197 204 205 208 217 217 218
176 165 178 194 164 185 198 245 199 253 281 279 299 292 275 265 267 263 243 235 230 222 219 221 216 212 215 206 207 211 214 216 214 209 207 206 208 212 220 230 224 203 207 214 208 218 209 228 240
152 146 155 137 82 203 237 265 265 304 282 287 300 316 307 316 344 313 286 262 236 230 225 219 218 218 206 200 201 209 211 210 212 210 211 214 209 206 210 226 229 219 215 223 218 218 217 229 234
144 147 131 106 64 212 206 268 285 355 23 340 316 328 350 17 54 48 49 49 231 236 229 228 227 221 213 211 212 216 205 217 223 215 214 214 207 204 207 215 220 222 228 230 227 215 228 240 214
149 172 168 148 140 87 280 244 198 88 84 63 39 37 49 44 61 56 53 49 55 64 215 213 216 220 219 221 219 200 281 270 210 217 217 214 214 212 209 214 218 219 216 221 217 215 216 233 216
176 176 136 133 168 177 314 239 152 102 81 64 65 68 78 83 79 69 65 56 51 52 65 98 174 208 220 217 214 223 231 239 244 237 217 217 212 217 216 219 218 220 216 225 223 219 220 221 222
131 139 120 119 98 183 194 249 132 160 129 89 85 89 90 86 83 74 64 59 57 56 65 74 81 85 135 203 224 231 246 257 267 268 262 233 223 225 220 218 222 224 223 228 228 221 219 217 228
142 109 76 79 106 226 172 250 181 180 163 144 125 107 100 92 89 79 69 62 56 55 62 67 74 67 61 70 94 242 254 269 281 281 281 285 298 294 247 235 229 229 230 230 231 227 225 223 227
176 157 127 174 195 235 32 210 339 147 132 151 140 123 107 102 90 80 74 68 58 55 57 61 65 63 63 61 56 50 39 3 311 310 299 298 288 282 281 287 291 282 278 261 242 235 228 224 229
183 197 173 180 189 160 88 222 215 154 124 141 132 123 121 104 92 81 77 77 73 66 62 63 62 60 53 57 53 48 39 38 26 5 339 320 313 307 309 295 286 282 281 282 276 264 250 237 234
170 209 83 105 31 167 192 226 230 163 167 163 151 147 134 119 104 91 82 73 73 69 62 62 65 64 55 52 54 50 42 39 29 19 3 352 339 333 320 313 303 296 290 284 283 273 271 249 241
213 143 145 124 160 213 196 252 205 181 181 174 165 157 140 129 115 104 94 90 83 81 76 70 62 61 53 49 46 44 38 34 30 28 17 4 351 344 335 330 319 312 304 296 289 279 277 270 264
147 182 92 121 198 187 181 227 221 187 180 174 166 158 150 142 129 119 110 100 91 81 70 67 61 54 48 42 42 39 31 27 25 19 9 1 350 349 343 338 327 317 309 302 293 284 280 275 272
330 176 179 188 198 259 0 246 317 186 172 166 161 160 152 146 138 130 115 99 84 74 65 62 55 52 41 33 33 31 25 19 18 10 1 353 343 339 338 336 329 322 315 309 300 293 286 281 278